Tracking 19562 objects as of 24-Mar-2019
HD Live streaming from Space Station
objects crossing your sky now

SCOUT X-4 R/B

Track SCOUT X-4 R/B now!
10-day predictions


NORAD ID: 1739
Int'l Code: 1965-093B
Perigee: 671.2 km
Apogee: 785.1 km
Inclination: 59.7 °
Period: 99.2 minutes
Semi major axis: 7099 km
RCS: 0.5409 m2 (medium)
Launch date: November 19, 1965
Source: United States (US)
Launch site: WALLOPS ISLAND (WLPIS)

Note: This is a ROCKET BODY
aabbcc
Your satellite tracking list
Your tracking list is empty




NASA's NSSDC Master Catalog

Two Line Element Set (TLE):
1  1739U 65093B   19083.17771374 -.00000049  00000-0  26842-4 0  9991
2  1739  59.7069   0.0890 0080163 322.2536  37.2898 14.51422187807261
Source of the keplerian elements: AFSPC